Location: Newark
(25.6108°S, 54.5803°W)
Time: 00:52:51
(UTC+00:00)

Tiros 1 - All Passes

Search period start: 27 October 2020 00:00
Search period end: 06 November 2020 00:00
Orbit: 630 x 663 km, 48.4° (Epoch: 26 October)

Date Brightness Start Highest point End Pass type
(mag) Time Alt. Az. Time Alt. Az. Time Alt. Az.
27 Oct - 01:35:12 10° SSW 01:39:19 27° SE 01:43:22 10° E visible
27 Oct - 03:17:05 10° WSW 03:21:34 39° NW 03:25:57 10° NNE night (unlit)
27 Oct - 17:22:44 10° NNW 17:27:24 56° NE 17:32:09 10° SE daylight
27 Oct - 19:06:10 10° W 19:09:50 21° SW 19:13:33 10° SSE daylight
28 Oct - 00:20:34 10° S 00:22:36 12° SSE 00:24:37 10° SE visible
28 Oct - 02:00:43 10° SW 02:05:30 66° SE 02:10:14 10° NE visible
28 Oct - 03:44:51 10° W 03:47:16 14° NW 03:49:41 10° NNW night (unlit)
28 Oct - 16:08:20 10° N 16:11:32 18° NE 16:14:44 10° E daylight
28 Oct - 17:48:43 10° WNW 17:53:23 53° SW 17:58:08 10° SE daylight
28 Oct - 19:35:19 10° SW 19:36:26 11° SSW 19:37:35 10° SSW daylight
29 Oct - 00:45:08 10° SSW 00:49:09 25° SE 00:53:05 10° E visible
29 Oct - 02:26:52 10° WSW 02:31:27 44° NW 02:35:56 10° NNE night (unlit)
29 Oct - 16:32:41 10° NNW 16:37:17 50° NE 16:41:57 10° ESE daylight
29 Oct - 18:15:50 10° W 18:19:39 23° SW 18:23:31 10° SSE daylight
29 Oct - 23:30:43 10° S 23:32:23 12° SSE 23:34:03 10° SE visible
30 Oct - 01:10:35 10° SW 01:15:22 60° SE 01:20:04 10° ENE visible
30 Oct - 02:54:20 10° W 02:57:11 16° NW 02:59:59 10° NNW night (unlit)
30 Oct - 15:18:34 10° NNE 15:21:25 16° NE 15:24:18 10° E daylight
30 Oct - 16:58:32 10° WNW 17:03:14 59° SW 17:08:01 10° SE daylight
30 Oct - 18:44:36 10° SW 18:46:13 11° SSW 18:47:51 10° S daylight
30 Oct - 23:55:06 10° SSW 23:58:57 23° SE 00:02:47 10° E visible
31 Oct - 01:36:39 10° WSW 01:41:20 50° NW 01:45:54 10° NNE visible
31 Oct - 15:42:39 10° NNW 15:47:09 45° NE 15:51:45 10° ESE daylight
31 Oct - 17:25:32 10° W 17:29:28 25° SW 17:33:27 10° SSE daylight
31 Oct - 22:40:58 10° SSE 22:42:10 11° SSE 22:43:21 10° SE visible
01 Nov - 00:20:28 10° SW 00:25:13 54° SE 00:29:53 10° ENE visible
01 Nov - 02:03:54 10° W 02:07:04 18° NW 02:10:14 10° N visible
01 Nov - 14:28:52 10° NNE 14:31:19 14° NE 14:33:48 10° E daylight
01 Nov - 16:08:22 10° NW 16:13:05 66° SW 16:17:53 10° SE daylight
01 Nov - 17:54:01 10° SW 17:56:00 12° SSW 17:58:00 10° S daylight
01 Nov - 23:05:03 10° SSW 23:08:46 21° SE 23:12:27 10° E visible
02 Nov - 00:46:28 10° SW 00:51:12 56° NW 00:55:51 10° NNE visible
02 Nov - 14:52:38 10° NNW 14:57:02 40° NE 15:01:31 10° ESE daylight
02 Nov - 16:35:14 10° W 16:39:17 27° SW 16:43:23 10° SSE daylight
02 Nov - 21:51:46 10° SSE 21:51:56 10° SSE 21:52:08 10° SSE daylight
02 Nov - 23:30:21 10° SW 23:35:03 48° SE 23:39:41 10° ENE visible
03 Nov - 01:13:30 10° W 01:16:58 20° NW 01:20:24 10° N visible
03 Nov - 13:39:18 10° NNE 13:41:14 12° NE 13:43:09 10° ENE daylight
03 Nov - 15:18:13 10° NW 15:22:56 73° SW 15:27:45 10° SE daylight
03 Nov - 17:03:30 10° WSW 17:05:47 13° SSW 17:08:05 10° S daylight
03 Nov - 22:15:01 10° SSW 22:18:34 20° SSE 22:22:07 10° E visible
03 Nov - 23:56:17 10° SW 00:01:04 63° NW 00:05:46 10° NNE visible
04 Nov - 14:02:38 10° NNW 14:06:55 35° NE 14:11:17 10° ESE daylight
04 Nov - 15:44:58 10° W 15:49:06 29° SW 15:53:19 10° SSE daylight
04 Nov - 22:40:15 10° SSW 22:44:54 44° SE 22:49:29 10° ENE visible
05 Nov - 00:23:08 10° WSW 00:26:51 22° NW 00:30:32 10° N visible
05 Nov - 12:50:01 10° NE 12:51:07 11° NE 12:52:14 10° ENE daylight
05 Nov - 14:28:05 10° NW 14:32:48 81° SW 14:37:37 10° SE daylight
05 Nov - 16:13:02 10° WSW 16:15:35 14° SSW 16:18:09 10° S daylight
05 Nov - 21:24:58 10° SSW 21:28:22 18° SSE 21:31:44 10° ESE daylight
05 Nov - 23:06:05 10° SW 23:10:56 70° NW 23:15:41 10° NE visible
